Location: Unspecified
(0.0000°N, 0.0000°E)
Time: 14:53:17
(UTC+00:00)

Altair - Pass Details

Date: 05 November 2021
Orbit: 1502 x 1682 km, 47.2° (Epoch: 26 November)

Event Time Altitude Azimuth Distance (km) Brightness Sun altitude
Rises 08:11:02 0° 321° (NW) 4,816 9.7 35.3°
Reaches altitude 10° 08:14:06 10° 321° (NW) 3,853 9.3 36.0°
Maximum altitude 08:24:03 89° 50° (NE) 1,667 8.4 38.3°
Drops below altitude 10° 08:34:15 10° 140° (SE) 3,943 10.6 40.7°
Sets 08:37:25 0° 140° (SE) 4,932 10.8 41.4°
